Weather in Pokoynoe

Russia / Stavropol Krai     44°48′35″N   44°14′45″E
temp.,
°C
wind,
m/s
gust,
m/s
humid.,
%
clouds,
%
prec.,
mm/h
press.,
hPa
HPBL,
m
24 september, fri
fri2400:00+12ne3589100 1.2 1011365
03:00+12nne3587100 2.1 1010418
06:00+11nnw4693100 6.4 1011429
09:00+11nnw4689100 9.8 1013460
12:00+12nw4483100 0.6 1013531
15:00+15wnw4566100 0.6 1013944
18:00+14wnw2271100 0.0 101440
21:00+12w11775 0.0 101511
25 september, sat
sat2500:00+12w22823 0.0 101412
03:00+11sw22847 0.0 101411
06:00+11s3379100 0.0 101356
09:00+15sse5861100 0.0 1011527
12:00+19s4646100 0.0 10111330
15:00+17wnw9858100 0.0 10131026
18:00+13wsw4676100 0.6 1015283
21:00+12sw5886100 2.3 1017331
26 september, sun
sun2600:00+12wsw6107798 0.3 1018526
03:00+11w511785 0.3 1019414
06:00+10wsw612853 0.0 1020419
09:00+14w7126334 0.0 1019982
12:00+18wnw91345100 0.0 10192219
15:00+19wnw81347100 0.0 10182049
18:00+16w5105996 0.0 1017536
21:00+16wsw61260100 0.0 1016603
27 september, mon
mon2700:00+17w71461100 0.1 10151067
03:00+16wnw61370100 0.1 10141011
06:00+16w71375100 0.1 10141016
09:00+15nw61175100 0.1 10151026
12:00+18wnw7104762 0.0 10151646
15:00+19wnw7104192 0.0 10151834
18:00+16nw474182 0.0 1016310
21:00+13nw34522 0.0 101761
28 september, tue
tue2800:00+11nne346310 0.0 101887
03:00+10n22644 0.0 101919
06:00+9nnw22655 0.0 102012
09:00+14n22505 0.0 1021520
12:00+16n22405 0.0 10201482
15:00+18nne223699 0.0 10211711
18:00+16ene2243100 0.0 102229
21:00+14ene375897 0.0 1023218